RH
50 66 79 66 55 52 47 44 43 34 28 30 30 28 22 17 15 16 16 16 22 54 53 59 64 64 54 58 58 57 60 61 58 52 49 46 44 48 48 47 50 44 46 51
59 70 53 50 47 47 46 48 46 36 30 30 30 29 23 21 20 16 16 16 26 41 54 59 59 54 56 57 57 59 61 61 55 51 51 48 46 46 46 53 52 46 51 46
65 54 44 44 46 48 47 48 46 45 35 31 31 33 28 23 22 21 16 14 18 32 52 57 58 49 54 56 57 59 60 60 54 51 49 48 45 49 56 54 56 54 48 49
55 42 43 44 46 41 54 38 39 41 46 60 43 63 43 36 34 29 25 23 18 24 43 52 54 50 53 54 54 59 60 58 53 48 51 50 51 57 59 52 55 58 49 48
56 46 46 47 43 37 42 33 36 40 71 85 63 79 54 38 42 34 29 27 27 35 35 54 52 47 50 53 53 61 61 57 50 48 50 46 48 46 52 54 55 59 47 40
49 37 41 42 38 38 34 36 50 57 81 96 70 69 63 45 39 34 30 25 23 26 25 46 49 44 49 50 51 60 60 56 50 48 44 40 41 50 54 54 55 56 49 43
51 50 41 38 47 39 41 50 94 97 98 80 47 68 60 35 39 36 32 28 25 27 24 41 51 44 49 50 51 58 57 54 51 44 41 39 45 46 42 49 52 58 52 48
66 72 44 37 45 49 48 50 78 78 74 59 41 56 43 33 30 29 25 26 28 27 26 46 49 43 49 50 52 55 54 54 46 42 40 48 40 38 39 43 49 47 50 45
71 58 36 32 34 38 49 62 45 71 61 78 53 44 34 31 42 44 30 30 36 45 35 49 49 44 49 51 52 54 52 54 47 48 44 41 37 36 44 42 45 46 44 45
89 100 67 50 44 47 46 42 68 69 94 93 81 60 56 74 69 58 46 42 39 51 48 48 47 49 51 52 52 52 53 55 52 49 38 39 39 41 39 40 42 44 45 42
88 96 79 62 59 56 57 70 78 87 95 96 91 81 73 87 82 84 71 44 46 50 58 50 49 48 52 55 55 53 57 58 54 47 43 42 42 38 40 42 44 40 44 54
84 99 100 78 56 62 71 86 94 100 100 100 98 96 80 74 72 75 74 69 63 58 59 56 69 58 63 64 57 60 62 60 55 50 46 44 42 42 46 49 51 45 51 50
95 96 95 76 66 72 95 96 93 99 100 98 96 98 76 70 64 59 71 65 64 54 62 69 74 81 85 71 70 68 67 62 59 52 47 46 45 47 51 56 55 52 56 52
88 91 98 96 86 82 92 68 62 95 99 99 100 86 68 60 69 64 68 69 62 57 61 64 73 76 74 73 76 74 72 63 59 53 49 50 52 53 57 63 62 63 53 56
97 99 72 73 58 57 67 55 60 66 76 98 69 68 54 50 68 68 67 67 63 52 58 68 74 76 76 81 84 78 76 68 61 56 53 58 62 62 83 80 70 65 56 63
88 98 95 90 56 51 59 50 50 48 50 58 76 81 55 48 42 59 60 57 52 47 47 62 68 73 80 80 81 81 79 78 63 69 75 64 71 92 89 76 72 68 69 69
92 96 97 83 51 58 76 59 49 39 36 54 68 54 48 49 41 42 58 56 54 49 44 61 69 71 75 78 85 79 82 83 78 79 81 84 88 95 83 74 73 70 66 68
72 88 86 92 71 87 46 38 36 43 41 48 48 55 67 56 38 44 49 50 49 46 46 53 66 73 78 84 85 84 87 88 93 97 98 90 94 89 78 72 71 69 64 67
52 68 87 96 86 63 41 34 36 36 37 34 36 43 72 76 57 62 56 56 45 42 52 55 61 73 82 84 87 89 88 92 96 98 90 91 92 83 77 76 74 72 71 77
44 55 77 97 96 81 43 30 52 48 62 53 40 47 54 59 65 80 70 68 79 76 67 66 69 80 83 83 87 88 85 89 92 96 98 94 80 84 83 80 77 77 71 79
80 96 94 93 90 75 46 49 31 65 80 60 57 56 74 72 82 75 65 70 80 99 96 65 71 77 85 84 88 91 88 89 93 96 88 81 86 86 86 89 84 80 86 91
62 78 94 95 96 91 69 82 95 94 74 69 67 73 75 83 99 93 70 73 74 90 99 93 82 87 91 86 89 91 89 88 85 80 81 79 80 84 97 92 88 89 98 93
81 84 98 89 90 71 71 65 60 79 75 85 86 62 64 68 72 77 70 69 82 96 99 100 100 100 93 90 91 94 98 88 88 80 78 83 89 92 95 96 96 100 96 97
63 54 96 95 68 48 51 61 60 74 80 75 64 62 61 61 61 64 76 74 85 96 98 99 99 99 99 93 90 94 92 84 96 96 96 97 97 97 97 92 94 99 100 100
63 54 61 60 58 50 49 59 61 68 84 86 58 62 62 62 63 76 74 74 77 90 98 95 97 98 99 96 97 91 88 90 99 100 99 99 98 95 96 96 94 94 94 90
52 58 67 63 50 68 62 66 58 76 83 76 70 63 65 70 68 61 66 65 71 84 89 93 97 97 100 100 100 97 95 98 98 97 91 84 89 94 97 95 90 84 83 79
Wind_Speed
7 10 16 16 16 20 19 18 22 19 17 16 22 21 18 10 6 8 9 8 11 23 23 37 41 37 41 43 41 43 40 36 35 36 35 30 30 27 22 18 15 14 14 14
11 24 19 17 19 23 23 24 25 22 17 14 19 26 23 11 8 8 11 10 10 13 22 23 35 36 43 46 42 40 39 38 37 36 31 29 32 27 21 19 15 14 14 13
19 22 17 20 21 23 21 23 20 20 15 17 18 26 21 14 8 8 9 10 11 16 23 24 23 36 42 44 46 45 44 40 36 33 31 28 27 24 21 20 18 15 14 13
20 16 19 19 26 16 21 18 21 21 16 17 4 15 29 15 18 18 10 10 15 14 22 26 24 26 41 43 45 46 49 47 38 34 31 34 26 26 24 25 21 17 13 13
32 16 16 21 23 15 24 14 20 20 4 6 22 4 26 4 16 11 12 12 12 13 23 26 29 35 43 45 45 43 44 44 41 38 37 38 29 24 29 27 23 18 14 13
30 13 15 27 22 20 19 20 9 6 3 8 30 7 14 19 17 12 13 17 18 11 18 27 31 37 36 39 40 41 42 38 38 39 42 38 33 30 34 30 25 21 17 15
25 34 28 25 21 24 21 13 5 4 7 12 17 8 18 27 9 17 14 17 16 15 16 23 25 24 35 40 42 41 42 36 34 39 37 31 33 36 34 30 27 24 20 16
17 18 28 17 29 22 10 18 10 14 8 14 12 11 18 10 20 27 29 19 16 15 17 26 29 27 34 40 41 41 41 38 39 34 32 28 38 33 29 28 28 25 23 17
10 26 19 12 20 21 31 17 22 14 21 12 13 16 15 13 12 19 1 8 10 7 14 25 22 20 32 37 39 41 39 37 39 35 35 38 34 30 29 30 27 27 20 16
3 5 17 18 17 15 14 5 11 13 13 14 8 13 6 9 12 14 16 11 12 10 11 17 18 16 24 29 31 35 34 36 38 38 40 33 31 30 32 30 28 23 18 18
8 5 6 6 5 9 8 9 3 6 6 6 5 4 3 5 3 8 11 15 14 9 7 12 12 22 29 32 31 30 33 35 39 40 38 34 33 31 29 28 25 22 20 20
2 4 4 3 13 4 1 1 3 3 6 1 2 3 1 4 7 6 9 11 13 8 8 8 9 14 23 28 31 32 33 36 39 40 37 35 33 29 28 26 24 22 22 19
7 4 4 7 1 10 5 4 7 3 3 4 5 2 1 3 4 2 1 2 4 6 10 11 6 9 16 25 25 30 33 38 36 40 39 35 33 32 29 25 24 22 22 19
7 5 4 3 6 4 5 11 9 3 2 5 3 4 8 9 5 7 7 7 6 5 10 12 10 11 19 25 32 33 32 40 42 43 40 37 35 31 28 26 22 24 21 20
5 5 8 13 17 12 12 16 9 8 9 8 16 12 11 3 6 10 13 9 8 8 14 14 15 11 13 18 24 31 36 40 43 42 41 39 35 32 27 24 26 22 21 19
5 5 5 5 13 13 16 13 13 13 12 16 16 18 16 11 12 10 14 10 7 8 12 15 18 19 17 25 27 28 31 38 44 38 33 37 32 27 28 28 27 23 23 19
1 4 6 7 5 8 6 13 12 11 13 8 9 17 17 15 16 12 10 10 9 8 12 17 18 18 21 27 29 32 34 38 38 36 35 34 33 32 30 30 28 26 27 25
10 11 10 10 8 8 8 8 11 10 12 10 12 11 15 14 22 7 7 11 9 8 11 15 14 14 24 28 30 29 30 32 33 33 32 35 34 32 33 31 31 30 28 27
20 14 6 4 4 8 12 8 3 11 14 11 9 7 6 16 5 3 4 3 8 8 8 10 23 26 28 30 30 32 31 31 32 31 36 37 36 33 34 35 34 31 28 26
19 18 11 2 4 6 1 6 6 9 7 13 3 6 8 14 1 4 5 6 6 6 4 12 25 28 29 30 36 33 30 29 27 29 30 34 36 33 32 34 34 30 27 26
2 3 12 10 8 6 7 14 10 5 5 15 12 6 5 5 5 1 3 3 4 3 5 17 30 29 32 35 33 27 28 27 28 30 32 33 30 32 32 31 31 29 28 27
6 2 3 3 5 6 17 17 8 8 14 10 6 4 4 1 5 6 6 5 4 5 4 7 15 21 32 36 34 30 30 30 36 36 34 32 32 31 31 32 30 30 30 28
4 3 3 2 3 3 6 11 5 8 9 9 11 8 3 2 3 5 5 3 5 6 4 5 15 18 24 30 31 27 27 36 35 37 36 33 32 31 30 31 29 25 27 24
3 8 3 9 7 14 11 9 13 15 14 13 11 7 9 8 8 7 4 4 6 5 7 12 12 15 17 27 29 28 30 37 31 32 33 31 29 30 30 28 28 25 25 23
5 8 6 6 9 15 5 13 13 16 16 15 6 4 7 8 10 7 8 8 7 7 11 14 12 13 18 27 29 34 36 36 28 24 25 27 28 28 28 25 25 24 24 26
4 8 6 9 10 8 15 13 21 12 13 19 16 4 7 10 12 8 5 8 10 8 15 13 14 15 16 25 29 32 35 36 33 26 25 26 26 26 25 26 23 19 22 21
Wind_Direction
244 225 223 212 216 235 246 260 268 272 278 288 285 286 278 271 223 230 241 218 189 186 182 175 177 172 154 162 167 171 169 171 171 167 163 158 156 159 166 162 155 145 140 143
244 251 230 226 233 237 235 244 255 267 259 248 276 281 276 259 255 223 207 216 201 174 167 174 176 166 161 161 163 165 168 174 171 172 169 164 161 162 163 156 151 146 142 135
231 244 225 240 247 252 261 258 269 271 277 267 270 275 281 267 269 245 234 214 199 181 175 175 176 169 162 162 163 163 169 173 177 179 175 170 162 156 152 158 149 147 144 133
251 260 248 253 255 248 255 255 265 269 279 274 59 279 278 274 277 277 277 229 220 189 182 178 174 167 167 168 164 163 168 171 179 180 178 169 164 162 169 160 151 146 141 129
242 234 236 251 249 247 259 280 268 268 197 13 276 230 277 211 262 259 256 251 233 208 184 184 177 172 170 163 163 162 164 170 174 186 181 170 170 170 165 158 149 145 136 127
256 255 243 249 263 265 270 279 295 299 153 237 258 207 276 267 253 248 244 249 258 240 203 184 176 165 163 161 160 159 162 170 177 179 178 181 179 169 156 158 152 148 139 128
244 253 253 251 263 265 261 265 259 237 211 244 262 202 233 267 258 247 258 260 259 255 193 173 167 165 159 162 163 159 161 167 177 173 178 180 178 167 165 162 156 152 146 136
230 258 239 219 219 238 237 236 235 251 242 254 249 231 252 251 253 255 266 277 262 252 177 168 171 168 163 163 161 159 160 161 167 170 178 179 175 174 168 159 157 156 155 140
274 249 264 254 223 218 244 235 244 257 262 269 255 266 303 320 13 359 323 49 10 24 167 162 165 162 156 159 161 159 159 159 165 167 171 169 170 166 160 159 162 159 151 143
255 263 274 280 290 287 265 261 242 232 244 246 246 255 238 36 8 12 13 19 19 29 109 141 149 149 146 149 152 155 155 155 157 157 154 156 160 162 158 160 155 154 150 146
3 278 288 9 227 274 247 277 317 259 208 212 232 234 85 90 40 6 7 21 28 25 76 135 142 147 148 152 152 150 146 146 148 154 154 155 157 158 161 160 156 152 147 146
58 279 295 250 296 282 144 150 289 252 253 213 207 206 290 35 34 1 13 5 1 23 57 91 110 132 134 138 147 142 145 146 151 154 155 154 157 163 162 159 154 154 152 148
17 314 334 309 114 25 36 353 340 279 244 184 229 216 62 284 271 288 3 137 350 18 92 89 80 124 136 144 142 142 144 146 148 153 153 154 160 165 164 159 156 154 153 144
277 223 240 244 313 305 300 314 317 41 279 8 257 266 272 255 216 290 300 286 212 196 129 134 134 143 150 150 141 142 146 152 155 158 158 162 167 169 167 161 159 165 154 153
332 256 233 232 264 272 286 301 311 301 265 267 277 276 284 234 194 227 228 238 230 205 147 150 143 148 156 145 144 147 149 153 160 160 165 166 169 170 171 162 169 162 153 158
351 320 330 300 259 263 250 256 276 271 273 262 259 269 263 279 265 209 205 206 232 201 167 165 159 157 164 161 157 153 151 153 162 159 159 166 170 172 170 169 168 156 159 160
284 287 320 269 312 298 252 237 231 250 249 252 281 278 277 270 254 243 206 207 216 216 188 167 169 168 165 166 159 159 157 154 158 163 168 167 171 174 171 170 163 166 165 167
228 231 260 283 296 247 248 239 239 251 266 228 242 267 296 264 249 200 208 202 211 222 175 170 169 160 168 157 155 155 155 155 157 159 163 168 171 171 173 169 168 166 168 167
217 226 240 234 241 276 283 276 234 271 275 242 255 277 278 300 300 348 36 335 206 185 171 172 169 161 158 156 157 154 157 159 160 164 167 173 172 174 173 172 172 173 170 169
217 221 219 210 219 246 111 340 53 3 273 13 285 54 3 236 128 262 5 8 48 51 117 140 148 149 153 161 162 160 163 164 170 167 166 163 172 175 172 172 176 176 175 172
305 264 221 233 242 286 0 347 297 189 310 345 351 8 77 30 302 287 93 45 58 39 6 143 153 164 169 164 159 158 164 169 162 156 162 167 170 171 174 175 178 174 170 164
280 285 213 236 216 265 2 349 352 328 320 337 319 325 44 305 327 309 313 123 84 58 17 151 143 156 159 160 158 164 167 165 162 168 169 169 172 175 175 178 175 171 167 161
286 353 302 284 265 304 318 286 274 263 293 335 306 267 187 63 306 273 302 194 128 106 81 89 132 129 152 161 161 159 157 155 154 161 168 167 167 168 172 176 169 168 168 163
280 295 312 328 343 314 317 330 346 338 330 259 258 14 359 318 264 279 277 167 136 128 117 122 131 138 136 151 153 150 152 154 160 154 152 157 163 170 175 176 174 174 175 170
265 315 295 303 286 305 321 328 330 332 318 321 298 27 358 343 349 222 207 158 140 124 124 130 138 145 135 141 144 153 158 157 152 151 154 158 163 169 168 173 178 182 185 184
236 256 272 276 295 306 320 323 309 310 313 286 291 355 10 10 342 317 214 133 126 128 130 127 130 136 133 137 145 155 161 163 151 147 156 160 161 164 164 164 173 188 190 192